Zurück zum Katalog

STARLINK-31697

AktivKommunikationVLEO
NORAD 59583·PAYLOAD·🇺🇸 United States

Gestartet Apr 23, 2024 von Cape Canaveral Space Force Station

Loading…

Nächste Überflüge (nächste 24 Stunden)

TLE

AktuellSource: CelesTrak SupGP

Epoche: Sep 14, 2026, 22:27 UTC

1 59583C 24076V   26257.93590278  .00011531  00000+0  41772-3 0  2575
2 59583  43.0028  20.0341 0001609 277.9336 225.2851 15.27567079    17

Verfolge STARLINK-31697 in Echtzeit mit AllMySat

Download on the App Store